When you browse on this site, cookies collect data to enhance your experience and personalize the content and advertising you see.
Visit our Privacy Policy to learn more. By continuing to use the site, you agree to this use of cookies and data.
  • In Latvia
  • List of Countries
  • For 7 days
  • Water Temperature
  • Weather Map
  • Weather Widgets
  • user-avatar
    Login

    Hourly Weather Adelaide

    Today, 6 June, Saturday

    Time Temperature Precipitation Wind Pressure Humidity
    00:00 +9°C° 0 mm 1 mps 766 mmHg 77%
    01:00 +9°C° 0 mm 1 mps 766 mmHg 76%
    02:00 +9°C° 0 mm 1 mps 765 mmHg 76%
    03:00 +9°C° 0 mm 1 mps 765 mmHg 79%
    04:00 +9°C° 0 mm 1 mps 765 mmHg 79%
    05:00 +8°C° 0 mm 1 mps 765 mmHg 79%
    06:00 +8°C° 0 mm 1 mps 765 mmHg 79%
    07:00 +9°C° 0 mm 1 mps 765 mmHg 74%
    08:00 +11°C° 0 mm 1 mps 765 mmHg 70%
    09:00 +11°C° 0 mm 0 mps 766 mmHg 68%
    10:00 +13°C° 0 mm 1 mps 765 mmHg 65%
    11:00 +14°C° 0 mm 1 mps 765 mmHg 62%
    12:00 +14°C° 0 mm 2 mps 765 mmHg 60%
    13:00 +14°C° 0 mm 2 mps 765 mmHg 61%
    14:00 +13°C° 0 mm 3 mps 764 mmHg 63%
    15:00 +13°C° 0 mm 3 mps 764 mmHg 67%
    16:00 +12°C° 0 mm 3 mps 764 mmHg 72%
    17:00 +11°C° 0 mm 3 mps 764 mmHg 77%
    18:00 +10°C° 0 mm 3 mps 765 mmHg 83%
    19:00 +9°C° 0 mm 3 mps 765 mmHg 83%
    20:00 +9°C° 0 mm 3 mps 765 mmHg 83%
    21:00 +9°C° 0 mm 3 mps 765 mmHg 84%
    22:00 +9°C° 0 mm 2 mps 765 mmHg 84%
    23:00 +9°C° 0 mm 2 mps 765 mmHg 85%

    Tomorrow, 7 June, Sunday

    Time Temperature Precipitation Wind Pressure Humidity
    00:00 +10°C° 0 mm 1 mps 765 mmHg 86%
    01:00 +9°C° 0.1 mm 2 mps 765 mmHg 86%
    02:00 +9°C° 0.1 mm 2 mps 765 mmHg 87%
    03:00 +10°C° 0.1 mm 2 mps 765 mmHg 88%
    04:00 +10°C° 0.1 mm 2 mps 765 mmHg 88%
    05:00 +10°C° 0.1 mm 3 mps 766 mmHg 89%
    06:00 +10°C° 0.1 mm 3 mps 766 mmHg 89%
    07:00 +10°C° 0 mm 4 mps 766 mmHg 85%
    08:00 +10°C° 0 mm 4 mps 767 mmHg 81%
    09:00 +10°C° 0 mm 4 mps 767 mmHg 77%
    10:00 +11°C° 0 mm 4 mps 767 mmHg 71%
    11:00 +11°C° 0 mm 4 mps 767 mmHg 66%
    12:00 +12°C° 0 mm 4 mps 766 mmHg 60%
    13:00 +12°C° 0 mm 4 mps 766 mmHg 60%
    14:00 +12°C° 0 mm 4 mps 766 mmHg 60%
    15:00 +12°C° 0 mm 4 mps 766 mmHg 61%
    16:00 +11°C° 0 mm 4 mps 767 mmHg 65%
    17:00 +8°C° 0 mm 4 mps 767 mmHg 70%
    18:00 +7°C° 0 mm 4 mps 767 mmHg 75%
    19:00 +8°C° 0 mm 3 mps 768 mmHg 77%
    20:00 +8°C° 0 mm 3 mps 768 mmHg 78%
    21:00 +7°C° 0 mm 3 mps 768 mmHg 80%
    22:00 +7°C° 0 mm 3 mps 768 mmHg 80%
    23:00 +7°C° 0 mm 3 mps 768 mmHg 80%

    Day after tomorrow, 8 June, Monday

    Time Temperature Precipitation Wind Pressure Humidity
    00:00 +7°C° 0 mm 3 mps 768 mmHg 80%
    01:00 +6°C° 0 mm 2 mps 768 mmHg 79%
    02:00 +6°C° 0 mm 2 mps 768 mmHg 79%
    03:00 +6°C° 0 mm 2 mps 768 mmHg 78%
    04:00 +6°C° 0 mm 2 mps 769 mmHg 79%
    05:00 +6°C° 0 mm 2 mps 769 mmHg 79%
    06:00 +7°C° 0 mm 1 mps 769 mmHg 79%
    07:00 +8°C° 0 mm 1 mps 770 mmHg 74%
    08:00 +9°C° 0 mm 1 mps 770 mmHg 70%
    09:00 +10°C° 0 mm 1 mps 770 mmHg 65%
    10:00 +11°C° 0 mm 1 mps 770 mmHg 60%
    11:00 +12°C° 0 mm 1 mps 770 mmHg 56%
    12:00 +13°C° 0 mm 1 mps 770 mmHg 51%
    13:00 +13°C° 0 mm 1 mps 769 mmHg 53%
    14:00 +13°C° 0 mm 1 mps 769 mmHg 55%
    15:00 +13°C° 0 mm 2 mps 769 mmHg 56%
    16:00 +12°C° 0 mm 2 mps 769 mmHg 61%
    17:00 +10°C° 0 mm 2 mps 769 mmHg 65%
    18:00 +8°C° 0 mm 2 mps 769 mmHg 69%
    19:00 +8°C° 0 mm 2 mps 769 mmHg 70%
    20:00 +8°C° 0 mm 2 mps 769 mmHg 70%
    21:00 +7°C° 0 mm 2 mps 769 mmHg 70%
    22:00 +7°C° 0 mm 2 mps 769 mmHg 70%
    23:00 +7°C° 0 mm 2 mps 769 mmHg 69%

    9 June, Tuesday

    Time Temperature Precipitation Wind Pressure Humidity
    00:00 +7°C° 0 mm 2 mps 769 mmHg 69%
    01:00 +7°C° 0 mm 2 mps 769 mmHg 69%
    02:00 +7°C° 0 mm 2 mps 769 mmHg 69%
    03:00 +7°C° 0 mm 2 mps 769 mmHg 68%
    04:00 +7°C° 0 mm 2 mps 769 mmHg 68%
    05:00 +7°C° 0 mm 3 mps 769 mmHg 68%
    06:00 +7°C° 0 mm 3 mps 769 mmHg 67%
    07:00 +8°C° 0 mm 3 mps 769 mmHg 64%
    08:00 +9°C° 0 mm 3 mps 769 mmHg 61%
    09:00 +10°C° 0 mm 3 mps 769 mmHg 59%
    10:00 +11°C° 0 mm 3 mps 769 mmHg 54%
    11:00 +13°C° 0 mm 2 mps 768 mmHg 50%
    12:00 +14°C° 0 mm 2 mps 768 mmHg 46%
    13:00 +14°C° 0 mm 2 mps 768 mmHg 48%
    14:00 +14°C° 0 mm 1 mps 767 mmHg 49%
    15:00 +14°C° 0 mm 1 mps 767 mmHg 51%
    16:00 +13°C° 0 mm 1 mps 767 mmHg 55%
    17:00 +12°C° 0 mm 1 mps 767 mmHg 58%
    18:00 +10°C° 0 mm 1 mps 767 mmHg 61%
    19:00 +10°C° 0 mm 1 mps 767 mmHg 62%
    20:00 +9°C° 0 mm 2 mps 767 mmHg 63%
    21:00 +8°C° 0 mm 2 mps 767 mmHg 64%
    22:00 +8°C° 0 mm 2 mps 767 mmHg 64%
    23:00 +8°C° 0 mm 2 mps 767 mmHg 65%

    10 June, Wednesday

    Time Temperature Precipitation Wind Pressure Humidity
    00:00 +8°C° 0 mm 2 mps 767 mmHg 65%
    01:00 +8°C° 0 mm 2 mps 767 mmHg 65%
    02:00 +7°C° 0 mm 2 mps 766 mmHg 66%
    03:00 +7°C° 0 mm 2 mps 766 mmHg 66%
    04:00 +7°C° 0 mm 2 mps 766 mmHg 66%
    05:00 +7°C° 0 mm 2 mps 766 mmHg 66%
    06:00 +7°C° 0 mm 2 mps 766 mmHg 65%
    07:00 +8°C° 0 mm 2 mps 766 mmHg 62%
    08:00 +10°C° 0 mm 2 mps 766 mmHg 58%
    09:00 +12°C° 0 mm 2 mps 766 mmHg 54%
    10:00 +13°C° 0 mm 1 mps 766 mmHg 51%
    11:00 +14°C° 0 mm 1 mps 766 mmHg 47%
    12:00 +15°C° 0 mm 1 mps 766 mmHg 44%
    13:00 +15°C° 0 mm 1 mps 765 mmHg 45%
    14:00 +14°C° 0 mm 1 mps 765 mmHg 47%
    15:00 +14°C° 0 mm 1 mps 764 mmHg 48%
    16:00 +13°C° 0 mm 1 mps 765 mmHg 51%
    17:00 +11°C° 0 mm 0 mps 765 mmHg 54%
    18:00 +10°C° 0 mm 0 mps 765 mmHg 57%
    19:00 +9°C° 0 mm 0 mps 765 mmHg 57%
    20:00 +10°C° 0 mm 1 mps 765 mmHg 58%
    21:00 +10°C° 0 mm 1 mps 766 mmHg 58%
    22:00 +10°C° 0 mm 1 mps 766 mmHg 60%
    23:00 +10°C° 0 mm 1 mps 765 mmHg 62%

    11 June, Thursday

    Time Temperature Precipitation Wind Pressure Humidity
    00:00 +9°C° 0 mm 1 mps 765 mmHg 63%
    01:00 +9°C° 0 mm 1 mps 765 mmHg 64%
    02:00 +9°C° 0 mm 1 mps 765 mmHg 64%
    03:00 +9°C° 0 mm 1 mps 765 mmHg 65%
    04:00 +9°C° 0 mm 1 mps 765 mmHg 65%
    05:00 +9°C° 0 mm 1 mps 765 mmHg 65%
    06:00 +9°C° 0 mm 1 mps 765 mmHg 65%
    07:00 +10°C° 0 mm 1 mps 765 mmHg 62%
    08:00 +11°C° 0 mm 1 mps 766 mmHg 59%
    09:00 +12°C° 0 mm 1 mps 766 mmHg 56%
    10:00 +13°C° 0 mm 1 mps 765 mmHg 52%
    11:00 +14°C° 0 mm 1 mps 765 mmHg 48%
    12:00 +14°C° 0 mm 0 mps 765 mmHg 44%
    13:00 +15°C° 0 mm 1 mps 764 mmHg 46%
    14:00 +15°C° 0 mm 1 mps 764 mmHg 48%
    15:00 +15°C° 0 mm 1 mps 764 mmHg 50%
    16:00 +13°C° 0 mm 1 mps 764 mmHg 55%
    17:00 +12°C° 0 mm 1 mps 764 mmHg 59%
    18:00 +11°C° 0 mm 1 mps 764 mmHg 63%
    19:00 +11°C° 0 mm 1 mps 764 mmHg 62%
    20:00 +10°C° 0 mm 2 mps 764 mmHg 60%
    21:00 +9°C° 0 mm 2 mps 764 mmHg 59%
    22:00 +9°C° 0 mm 2 mps 764 mmHg 58%
    23:00 +9°C° 0 mm 2 mps 764 mmHg 58%
    Show more